Home   Weather   Woodstock   Past weeks

Flag for USA Past Weather in Woodstock, New York, USA — Yesterday and Last 2 Weeks

Now
38 °F

Overcast.


Feels Like: 35 °F
Forecast: 26 / 40 °F
Wind: 3 mph from West

Location: Dutchess County Airport

Current Time: Dec 5, 2016 at 8:07:08 pm

Latest Report: Dec 5, 2016 at 6:53 pm


Visibility: 10 mi

Pressure: 30.01 "Hg

Humidity: 79%

Dew Point: 32 °F

Location of WoodstockLocation

Past Weather in Woodstock — Graph

°F

Woodstock Temperature Yesterday

Maximum temperature yesterday: 40 °F (at 12:53 pm)
Minimum temperature yesterday: 26 °F (at 6:53 am)
Average temperature yesterday: 33 °F

High & Low Weather Summary for the Past Weeks

 TemperatureHumidityPressure
High55 °F (Nov 29, 1:00 pm)100% (Nov 24, 8:53 pm)30.32 "Hg (Nov 24, 8:53 pm)
Low22 °F (Nov 28, 6:53 am)45% (Nov 22, 11:53 am)29.45 "Hg (Dec 1, 2:53 am)
Average39 °F75%30.00 "Hg
* Reported Nov 20 6:53 pm — Dec 5 6:53 pm, Woodstock, Weather by CustomWeather, © 2016

Note: Actual official high and low records may vary slightly from our data, if they occured in-between our weather recording intervals... More about our weather records

Advertising

Woodstock Weather History for the Previous 24 Hours

Scroll right to see more
 ConditionsComfort  
Time TempWeatherWind HumidityBarometerVisibility
6:53 pm
Mon, Dec 5
38 °FOvercast.3 mph79%30.01 "Hg10 mi
5:53 pm41 °FMostly cloudy.3 mph67%30.00 "Hg10 mi
4:53 pm42 °FOvercast.6 mph68%30.00 "Hg10 mi
3:53 pm43 °FPartly sunny.8 mph68%29.97 "Hg10 mi
2:53 pm44 °FOvercast.10 mph71%29.95 "Hg10 mi
1:53 pm43 °FOvercast.8 mph74%29.93 "Hg10 mi
12:53 pm41 °FOvercast.5 mph82%29.93 "Hg10 mi
11:53 am37 °FLow clouds.5 mph89%29.94 "Hg10 mi
10:53 am35 °FOvercast.3 mph92%29.95 "Hg10 mi
9:53 am33 °FFog.3 mph96%29.98 "Hg6 mi
8:53 am34 °FOvercast.5 mph92%29.97 "Hg10 mi
8:00 am32 °FIce fog.5 mph96%29.98 "Hg6 mi
6:53 am31 °FLight snow. Ice fog.No wind96%29.99 "Hg1 mi
5:53 am30 °FLight snow. Ice fog.No wind96%30.01 "Hg1 mi
5:04 am29 °FLight snow. Ice fog.No wind100%30.01 "Hg2 mi
4:53 am30 °FLight snow. Ice fog.No wind92%30.02 "Hg1 mi
3:53 am29 °FLight snow. Ice fog.3 mph89%30.03 "Hg1 mi
2:53 am31 °FMostly cloudy.No wind73%30.09 "Hg10 mi
1:53 am30 °FMostly cloudy.3 mph75%30.07 "Hg10 mi
12:53 am30 °FOvercast.No wind72%30.09 "Hg10 mi
11:53 pm
Sun, Dec 4
30 °FPassing clouds.No wind72%30.11 "Hg10 mi
10:53 pm30 °FClear.No wind75%30.14 "Hg10 mi
9:53 pm30 °FClear.No wind72%30.17 "Hg10 mi
8:53 pm29 °FClear.No wind79%30.18 "Hg10 mi
Weather by CustomWeather, © 2016

See weather overviewHow to use our weather pages